TimeMDT,TemperatureF,Dew PointF,Humidity,Sea Level PressureIn,VisibilityMPH,Wind Direction,Wind SpeedMPH,Gust SpeedMPH,PrecipitationIn,Events,Conditions,WindDirDegrees,DateUTC
12:15 AM,57.9,52.9,83,30.26,10.0,NW,3.5,-,N/A,,Mostly Cloudy,320,2013-08-21 06:15:00
12:35 AM,56.8,53.2,88,30.26,10.0,WNW,4.6,-,N/A,,Scattered Clouds,300,2013-08-21 06:35:00
12:55 AM,57.4,53.8,88,30.27,10.0,Calm,Calm,-,N/A,,Clear,0,2013-08-21 06:55:00
1:15 AM,55.6,53.4,92,30.27,10.0,Calm,Calm,-,N/A,,Scattered Clouds,0,2013-08-21 07:15:00
1:35 AM,56.5,54.1,92,30.26,10.0,Calm,Calm,-,N/A,,Clear,0,2013-08-21 07:35:00
1:55 AM,55.6,53.4,92,30.26,10.0,NNE,3.5,-,N/A,,Clear,20,2013-08-21 07:55:00
2:15 AM,56.1,53.8,92,30.26,10.0,Calm,Calm,-,N/A,,Clear,0,2013-08-21 08:15:00
2:35 AM,53.6,52.2,95,30.26,10.0,Calm,Calm,-,N/A,,Clear,0,2013-08-21 08:35:00
2:55 AM,54.0,52.3,94,30.26,10.0,Calm,Calm,-,N/A,,Clear,0,2013-08-21 08:55:00
3:15 AM,53.6,52.0,94,30.26,10.0,Calm,Calm,-,N/A,,Scattered Clouds,0,2013-08-21 09:15:00
3:35 AM,55.0,53.2,94,30.27,10.0,North,5.8,-,N/A,,Mostly Cloudy,360,2013-08-21 09:35:00
3:55 AM,55.6,53.8,94,30.28,10.0,NNW,4.6,-,N/A,,Overcast,330,2013-08-21 09:55:00
4:15 AM,56.1,53.8,92,30.28,10.0,West,4.6,-,N/A,,Overcast,280,2013-08-21 10:15:00
4:35 AM,57.2,53.6,88,30.28,10.0,Calm,Calm,-,N/A,,Mostly Cloudy,0,2013-08-21 10:35:00
4:55 AM,56.3,52.9,88,30.28,10.0,Calm,Calm,-,N/A,,Scattered Clouds,0,2013-08-21 10:55:00
5:15 AM,54.5,52.5,93,30.28,10.0,Calm,Calm,-,N/A,,Clear,0,2013-08-21 11:15:00
5:35 AM,54.5,52.5,93,30.28,10.0,Calm,Calm,-,N/A,,Clear,0,2013-08-21 11:35:00
5:55 AM,53.2,52.0,95,30.28,10.0,Calm,Calm,-,N/A,,Clear,0,2013-08-21 11:55:00
6:15 AM,52.3,50.7,94,30.29,10.0,Calm,Calm,-,N/A,,Scattered Clouds,0,2013-08-21 12:15:00
6:35 AM,52.7,52.0,97,30.29,10.0,Calm,Calm,-,N/A,,Clear,0,2013-08-21 12:35:00
6:55 AM,51.8,50.5,95,30.29,10.0,Calm,Calm,-,N/A,,Clear,0,2013-08-21 12:55:00
7:15 AM,53.8,52.7,96,30.30,10.0,Calm,Calm,-,N/A,,Clear,0,2013-08-21 13:15:00
7:35 AM,57.0,54.0,89,30.31,10.0,Calm,Calm,-,N/A,,Clear,0,2013-08-21 13:35:00
7:55 AM,59.0,55.4,88,30.31,10.0,Calm,Calm,-,N/A,,Clear,0,2013-08-21 13:55:00
8:15 AM,61.0,54.3,79,30.31,10.0,Calm,Calm,-,N/A,,Clear,0,2013-08-21 14:15:00
8:35 AM,62.1,55.6,79,30.31,10.0,Calm,Calm,-,N/A,,Clear,0,2013-08-21 14:35:00
8:55 AM,63.9,55.9,75,30.31,10.0,Calm,Calm,-,N/A,,Clear,0,2013-08-21 14:55:00
9:15 AM,65.7,56.1,71,30.31,10.0,Calm,Calm,-,N/A,,Clear,0,2013-08-21 15:15:00
9:35 AM,67.8,55.2,64,30.32,10.0,NNW,3.5,-,N/A,,Clear,330,2013-08-21 15:35:00
9:55 AM,68.5,53.8,59,30.32,10.0,North,3.5,-,N/A,,Clear,350,2013-08-21 15:55:00
10:15 AM,71.1,53.2,53,30.32,10.0,Calm,Calm,-,N/A,,Clear,0,2013-08-21 16:15:00
10:35 AM,73.2,53.2,49,30.31,10.0,Calm,Calm,-,N/A,,Clear,0,2013-08-21 16:35:00
10:55 AM,74.3,50.4,43,30.31,10.0,Calm,Calm,-,N/A,,Clear,0,2013-08-21 16:55:00
11:15 AM,75.7,50.0,40,30.31,10.0,Calm,Calm,-,N/A,,Clear,0,2013-08-21 17:15:00
11:35 AM,76.8,52.0,42,30.31,10.0,Calm,Calm,-,N/A,,Clear,0,2013-08-21 17:35:00
11:55 AM,78.1,50.7,38,30.30,10.0,Calm,Calm,-,N/A,,Clear,0,2013-08-21 17:55:00
12:15 PM,79.5,49.3,35,30.30,10.0,Calm,Calm,-,N/A,,Clear,0,2013-08-21 18:15:00
12:35 PM,80.6,49.5,34,30.29,10.0,South,4.6,-,N/A,,Clear,190,2013-08-21 18:35:00
12:55 PM,80.4,48.0,32,30.28,10.0,SSE,5.8,-,N/A,,Clear,150,2013-08-21 18:55:00
1:15 PM,82.8,49.3,31,30.28,10.0,ESE,10.4,17.3,N/A,,Clear,120,2013-08-21 19:15:00
1:35 PM,82.9,48.0,29,30.26,10.0,East,10.4,16.1,N/A,Thunderstorm,Clear,100,2013-08-21 19:35:00
1:55 PM,84.0,48.0,28,30.26,10.0,East,8.1,19.6,N/A,Thunderstorm,Clear,100,2013-08-21 19:55:00
2:15 PM,82.6,47.3,29,30.26,10.0,ESE,9.2,-,N/A,,Clear,120,2013-08-21 20:15:00
2:35 PM,83.5,47.1,28,30.24,10.0,ESE,17.3,21.9,N/A,,Clear,110,2013-08-21 20:35:00
2:55 PM,84.2,45.0,25,30.24,10.0,ESE,8.1,16.1,N/A,,Clear,120,2013-08-21 20:55:00
3:15 PM,85.1,45.1,25,30.23,10.0,SE,10.4,17.3,N/A,,Clear,140,2013-08-21 21:15:00
3:35 PM,84.0,45.0,25,30.21,10.0,SE,10.4,19.6,N/A,,Clear,130,2013-08-21 21:35:00
3:55 PM,85.1,41.9,22,30.21,10.0,SE,9.2,17.3,N/A,,Clear,130,2013-08-21 21:55:00
4:15 PM,86.5,43.0,22,30.20,10.0,SE,13.8,20.7,N/A,,Clear,140,2013-08-21 22:15:00
4:35 PM,85.6,44.2,23,30.20,10.0,South,10.4,21.9,N/A,,Clear,170,2013-08-21 22:35:00
4:55 PM,85.8,43.2,22,30.19,10.0,SE,12.7,-,N/A,Thunderstorm,Clear,130,2013-08-21 22:55:00
5:15 PM,86.2,42.8,22,30.19,10.0,SSE,8.1,18.4,N/A,,Clear,150,2013-08-21 23:15:00
5:35 PM,84.4,41.2,22,30.20,10.0,ESE,13.8,19.6,N/A,,Clear,120,2013-08-21 23:35:00
5:55 PM,83.3,44.8,26,30.20,10.0,South,13.8,19.6,N/A,,Mostly Cloudy,170,2013-08-21 23:55:00
6:15 PM,81.5,45.0,28,30.21,10.0,South,12.7,19.6,N/A,,Mostly Cloudy,170,2013-08-22 00:15:00
6:35 PM,79.7,44.6,29,30.22,10.0,SSW,16.1,23.0,N/A,,Scattered Clouds,200,2013-08-22 00:35:00
6:55 PM,78.3,43.9,29,30.21,10.0,SW,15.0,24.2,N/A,,Clear,220,2013-08-22 00:55:00
7:15 PM,77.2,45.0,32,30.21,10.0,SSW,12.7,20.7,N/A,,Clear,210,2013-08-22 01:15:00
7:35 PM,76.1,46.4,35,30.22,10.0,SW,11.5,18.4,N/A,,Clear,230,2013-08-22 01:35:00
7:55 PM,74.7,48.9,40,30.23,10.0,SW,11.5,-,N/A,,Clear,230,2013-08-22 01:55:00
8:15 PM,73.6,50.2,44,30.23,10.0,WSW,15.0,21.9,N/A,Thunderstorm,Clear,240,2013-08-22 02:15:00
8:35 PM,72.7,51.1,47,30.24,10.0,SW,9.2,18.4,N/A,,Clear,230,2013-08-22 02:35:00
8:55 PM,72.1,51.1,47,30.26,10.0,SSW,6.9,-,N/A,,Clear,200,2013-08-22 02:55:00
9:15 PM,70.5,50.9,50,30.28,10.0,ESE,5.8,-,N/A,,Clear,120,2013-08-22 03:15:00
9:35 PM,71.8,50.0,46,30.29,10.0,Calm,Calm,-,N/A,,Clear,0,2013-08-22 03:35:00
9:55 PM,68.4,51.4,55,30.31,10.0,Calm,Calm,-,N/A,,Scattered Clouds,0,2013-08-22 03:55:00
10:15 PM,65.8,52.9,63,30.31,10.0,West,3.5,-,N/A,,Mostly Cloudy,270,2013-08-22 04:15:00
10:35 PM,68.7,52.5,56,30.32,10.0,Calm,Calm,-,N/A,,Overcast,0,2013-08-22 04:35:00
10:55 PM,68.5,53.4,58,30.32,10.0,NW,6.9,-,N/A,,Overcast,320,2013-08-22 04:55:00
11:15 PM,68.4,51.6,55,30.33,10.0,North,8.1,-,N/A,,Overcast,350,2013-08-22 05:15:00
11:35 PM,67.5,51.1,56,30.34,10.0,NNW,5.8,-,N/A,,Mostly Cloudy,330,2013-08-22 05:35:00
11:55 PM,67.3,51.1,56,30.34,10.0,North,5.8,-,N/A,,Mostly Cloudy,360,2013-08-22 05:55:00